Regional Weather Roundup
Issued by NWS

Home | Current Version | Previous Version | Graphics & Text | Print | Product List | Glossary On
Versions: 1 2 3 4 5 6 7 8 9 10 11 12 13 14 15 16 17 18 19 20 21 22 23 24 25 26 27
000
ASUS45 KBOU 281607
RWRCO

WEATHER ROUNDUP FOR COLORADO
NATIONAL WEATHER SERVICE DENVER/BOULDER CO
1000 AM MDT THU JUL 28 2016

NOTE: "FAIR" INDICATES FEW OR NO CLOUDS BELOW 12000 FEET WITH NO
SIGNIFICANT WEATHER AND/OR OBSTRUCTIONS TO VISIBILITY.

COZ001>005-013-030-031-281700-
...NORTHWEST COLORADO...

CITY           SKY/WX    TMP DP  RH WIND       PRES   REMARKS
CRAIG          FAIR      71  33  24 CALM      30.28F
HAYDEN         FAIR      70  30  23 E6        30.30F
MEEKER         FAIR      73  34  23 CALM      30.28F
MOUNT WERNER   NOT AVBL
STEAMBOAT SPGS FAIR      67  34  29 CALM      30.32F
WALDEN         PTSUNNY   61  32  33 CALM      30.40F
$$

COZ006>008-011-281700-
...WEST CENTRAL VALLEYS...

CITY           SKY/WX    TMP DP  RH WIND       PRES   REMARKS
GRAND JUNCTION FAIR      81  34  18 SE13      30.14F
MONTROSE       FAIR      76  43  30 CALM      30.24F
EAGLE          NOT AVBL
RIFLE          FAIR      75  34  22 NE5       30.22F
DELTA          NOT AVBL
NUCLA          NOT AVBL
$$

COZ017>023-064>068-281700-
...SOUTHWEST COLORADO...

CITY           SKY/WX    TMP DP  RH WIND       PRES   REMARKS
DURANGO        FAIR      79  45  29 SE10      30.34F
CORTEZ         FAIR      84  46  26 CALM      30.24F
PAGOSA SPRINGS FAIR      77  38  25 CALM      30.43F
TELLURIDE      NOT AVBL
WOLF CREEK PAS FAIR      55  41  58 SW13      30.78S
$$

COZ009-010-012-014-032>034-037-058>063-281700-
...CENTRAL COLORADO...

CITY           SKY/WX    TMP DP  RH WIND       PRES   REMARKS
ASPEN          FAIR      72  33  24 VRB3      30.37F
BUENA VISTA    FAIR      71  34  26 CALM      30.40F
COPPER MTN     FAIR      61  14  16 NW8G21    30.72F
BERTHOUD PASS  FAIR      52  37  58 N13G30    30.74S
COTTONWOOD PAS FAIR      70  27  19 CALM      30.55F
GUNNISON       FAIR      64  36  34 CALM      30.45F
KREMMLING      FAIR      63  28  27 CALM      30.39F
LEADVILLE      FAIR      69  19  15 VRB3      30.53F
MONARCH PASS   FAIR      59  32  36 MISG      30.83R
SALIDA         FAIR      76  40  27 N13       30.43F
SUNLIGHT       NOT AVBL
WILKERSON PASS FAIR      61  32  33 W5        30.68F
$$

COZ069>075-281700-
...SAN LUIS VALLEY/SANGRE DE CRISTO MOUNTAINS...

CITY           SKY/WX    TMP DP  RH WIND       PRES   REMARKS
ALAMOSA          N/A    N/A N/A N/A MISG      30.40F
LA VETA PASS   FAIR      64  43  45 S8G18     30.59F
SAGUACHE       FAIR      70  46  43 S7        30.43F
$$

COZ035-036-038>040-281700-
...NORTHERN COLORADO FRONT RANGE...

CITY           SKY/WX    TMP DP  RH WIND       PRES   REMARKS
DENVER INTL AP FAIR      73  59  61 N15       30.19R
DMNS CITY PARK   N/A     72  59  63 N3G16     30.19R
AURORA         MOSUNNY   77  60  54 N17       30.20
FRONT RANGE AP MOSUNNY  N/A N/A N/A N15G22    30.20S
ERIE MUNI ARPT FAIR      71  59  66 N14       30.20S
BOULDER MUN AP FAIR      70  59  68 N10       30.21S
CENTENNIAL     FAIR      80  50  34 N14G21    30.20S
BROOMFIELD     NOT AVBL
LONGMONT       NOT AVBL
$$

COZ041-046-047-076>085-087-088-281700-
...PIKES PEAK/PALMER DIVIDE AND SOUTHERN FOOTHILLS...

CITY           SKY/WX    TMP DP  RH WIND       PRES   REMARKS
COLO. SPRINGS  FAIR      70  56  61 VRB7      30.26F
A. F. ACADEMY  MOSUNNY   71  55  58 S9        30.26
SCHRIEVER AFB  NOT AVBL
ELLICOTT       NOT AVBL
FALCON         NOT AVBL
FORT CARSON    FAIR      72  57  60 N7        30.23F
LIMON          FAIR      74  57  55 SW15G25   30.20R
MONUMENT HILL  FAIR      72  54  53 SW9       30.30F
TRINIDAD       NOT AVBL
$$

COZ042>045-048>051-090-091-281700-
...NORTHEAST COLORADO...

CITY           SKY/WX    TMP DP  RH WIND       PRES   REMARKS
GREELEY ARPT   CLOUDY    66  59  77 NW8       30.19F
AKRON          FAIR      70  54  56 E12       30.18F
BURLINGTON     FAIR      81  57  43 VRB6      30.15R
WRAY           NOT AVBL
STERLING       NOT AVBL
HOLYOKE        NOT AVBL
FORT MORGAN    NOT AVBL
$$

COZ086-089-092>099-281700-
...SOUTHEAST COLORADO...

CITY           SKY/WX    TMP DP  RH WIND       PRES   REMARKS
PUEBLO         FAIR      77  59  53 SE6       30.15F
LA JUNTA       FAIR      84  58  40 S14       30.10F
LAMAR          FAIR      82  56  40 S18G26    30.07F
SPRINGFIELD      N/A     78  59  51 S21       30.15F
$$




USA.gov is the U.S. government's official web portal to all federal, state and local government web resources and services.